Location: Falniów
(50.3639°N, 19.9642°E)
Time: 12:45:38
(UTC+00:00)

Cosmos 2082 Rocket - Pass Details

Date: 24 April 2026
Orbit: 831 x 853 km, 71.0° (Epoch: 19 May)

Event Time Altitude Azimuth Distance (km) Brightness Sun altitude
Exits shadow 22:33:26 38° 100° (E) 1,292 3.0 -26.5°
Drops below altitude 10° 22:38:22 10° 42° (NE) 2,493 5.2 -26.5°
Sets 22:40:58 0° 34° (NE) 3,432 6.2 -26.5°
